This is the latest recevied weather packets stored in our database for station/object N8QQQ. If no packets are shown the sender has not sent any weather packets the latest 10 day(s).
| Time | Temp. | Humidity | Pressure | Rain* | Wind** | Luminosity | Snow |
|---|---|---|---|---|---|---|---|
| 1777644747 | 0.56° C | 79% | 1016.3 hPa | 0 mm | - | 86 W/m² | - |
| 1777644444 | 0° C | 79% | 1016.4 hPa | 0 mm | - | 79 W/m² | - |
| 1777644141 | 0° C | 80% | 1016.6 hPa | 0 mm | - | 76 W/m² | - |
| 1777643836 | 0° C | 80% | 1016.3 hPa | 0 mm | - | 73 W/m² | - |
| 1777643534 | 0° C | 80% | 1016.5 hPa | 0 mm | - | 71 W/m² | - |
| 1777643231 | 0° C | 80% | 1016.3 hPa | 0 mm | - | 68 W/m² | - |
| 1777642928 | 0° C | 81% | 1016.2 hPa | 0 mm | - | 65 W/m² | - |
| 1777642624 | 0° C | 81% | 1016.4 hPa | 0 mm | - | 61 W/m² | - |
| 1777642321 | 0° C | 81% | 1016.4 hPa | 0 mm | - | 56 W/m² | - |
| 1777642018 | 0° C | 82% | 1016.3 hPa | 0 mm | - | 54 W/m² | - |
| 1777641713 | 0° C | 83% | 1016.4 hPa | 0 mm | - | 53 W/m² | - |
| 1777641409 | 0° C | 82% | 1016.3 hPa | 0 mm | - | 51 W/m² | - |
| 1777641104 | -0.56° C | 82% | 1016.1 hPa | 0 mm | - | 47 W/m² | - |
| 1777640800 | -0.56° C | 84% | 1016.2 hPa | 0 mm | - | 48 W/m² | - |
| 1777640498 | -0.56° C | 84% | 1016.3 hPa | 0 mm | - | 47 W/m² | - |
| 1777640194 | -0.56° C | 87% | 1016.3 hPa | 0 mm | - | 46 W/m² | - |
| 1777639891 | -0.56° C | 88% | 1016.2 hPa | 0 mm | - | 49 W/m² | - |
| 1777638677 | -1.11° C | 89% | 1016.4 hPa | 0 mm | - | 42 W/m² | - |
| 1777638374 | -1.11° C | 90% | 1016 hPa | 0 mm | - | 38 W/m² | - |
| 1777638070 | -1.11° C | 90% | 1016 hPa | 0 mm | - | 36 W/m² | - |
| 1777637767 | -1.11° C | 91% | 1016.1 hPa | 0 mm | - | 30 W/m² | - |
| 1777637160 | -1.11° C | 92% | 1015.8 hPa | 0 mm | - | 27 W/m² | - |
| 1777636552 | -1.11° C | 93% | 1016 hPa | 0 mm | - | 22 W/m² | - |
| 1777635645 | -1.11° C | 90% | 1015.8 hPa | 0 mm | - | 17 W/m² | - |
| 1777635342 | -1.11° C | 87% | 1015.8 hPa | 0 mm | - | 12 W/m² | - |
* Rain latest hour (hover to see other rain measurements)
** Current wind speed in m/s (hover to see current wind gust speed)